Location: Beneden-Haastrecht
(52.0012°N, 4.7557°E)
Time: 02:43:00
(UTC+00:00)

Cosmos 1758 Rocket - Pass Details

Date: 24 October 2020
Orbit: 601 x 637 km, 82.5° (Epoch: 27 November)

Event Time Altitude Azimuth Distance (km) Brightness Sun altitude
Rises 17:37:23 0° 346° (NNW) 2,927 7.1 -11.4°
Reaches altitude 10° 17:39:40 10° 343° (NNW) 2,009 6.3 -11.7°
Maximum altitude 17:44:02 59° 264° (W) 717 4.2 -12.4°
Drops below altitude 10° 17:48:20 10° 185° (S) 1,970 6.2 -13.1°
Sets 17:50:33 0° 182° (S) 2,865 7.0 -13.4°
